GEFSCGP_con_prob3kmehi_174.txt.gz
EHI
0 0 0 0 0 0 0 0 0 0 0 0 0 1 2 3 7 13 22 39 63 82 92 94 93 90 91 91 88 83 79 79 79 77 73 68 65 58 49 48 55 56 50 45
0 0 0 0 0 0 0 0 0 0 0 0 0 1 3 4 6 12 20 35 57 77 88 92 92 91 91 91 88 83 79 77 77 76 72 67 62 55 48 49 57 58 52 49
0 0 0 0 0 0 0 0 0 0 0 0 0 1 4 6 6 10 17 29 49 70 84 90 91 90 90 90 86 82 78 75 75 74 71 67 65 56 49 52 58 58 52 49
0 0 0 0 0 0 0 0 0 0 0 0 0 1 4 7 7 7 13 24 40 62 80 88 88 88 87 85 82 79 76 74 74 73 71 72 70 61 55 56 58 56 51 47
0 0 0 0 0 0 0 0 0 0 0 0 0 1 3 6 7 6 10 21 35 54 74 84 86 85 83 80 78 79 78 75 74 74 74 75 72 66 61 60 59 55 51 49
0 0 0 0 0 0 0 0 0 0 0 0 0 0 2 5 6 6 10 20 35 51 68 78 82 82 79 77 79 81 80 77 74 75 77 77 73 67 64 62 59 54 50 48
0 0 0 0 0 0 0 0 0 0 0 0 0 1 4 7 8 9 14 23 35 50 63 72 77 79 78 77 79 81 80 77 74 76 79 79 74 66 61 59 57 53 47 43
0 0 0 0 0 0 0 0 0 0 0 0 0 3 7 10 11 13 20 28 36 47 59 68 73 74 75 77 78 78 78 75 74 75 76 77 73 64 57 55 54 50 43 37
0 0 0 0 0 0 0 0 0 0 0 0 1 6 11 12 13 18 24 31 35 42 52 61 65 67 70 73 75 75 75 74 73 72 70 69 67 63 59 57 53 46 38 33
0 0 0 0 0 0 0 0 0 0 0 0 2 7 12 14 16 21 26 30 33 38 46 54 59 63 67 68 69 69 70 71 70 68 64 61 62 63 62 58 51 43 36 33
0 0 0 0 0 0 0 0 0 0 0 0 2 6 11 15 17 20 26 29 31 36 44 51 57 62 63 61 59 60 61 61 62 62 60 57 58 59 57 52 46 39 34 32
0 0 0 0 0 0 0 0 0 0 0 0 2 7 12 14 14 17 24 29 33 37 43 51 59 61 58 54 54 54 53 53 54 56 57 55 54 51 47 46 42 36 30 28
0 0 0 0 0 0 0 0 0 0 0 0 3 7 11 11 11 15 24 32 37 41 47 55 61 61 56 52 53 52 50 49 50 51 51 50 48 44 40 39 38 33 27 24
0 0 0 0 0 0 0 0 0 0 0 0 2 7 10 10 12 18 28 36 40 45 53 58 60 60 57 52 50 50 49 47 46 45 44 43 42 38 34 33 33 29 24 20
0 0 0 0 0 0 0 0 0 0 0 0 3 8 12 14 17 23 32 38 40 44 50 54 55 55 52 48 46 46 46 44 42 39 37 36 35 31 28 27 27 26 21 18
0 0 0 0 0 0 0 0 0 0 0 2 6 11 17 22 26 30 34 38 40 40 43 47 50 49 47 43 40 40 41 40 37 32 30 29 27 26 26 23 22 22 20 18
1 3 2 1 0 0 0 0 0 1 2 5 9 14 22 33 37 37 37 39 42 41 40 45 48 47 43 38 34 33 35 36 32 26 23 23 22 23 24 22 20 21 22 22
3 5 5 2 0 0 0 0 1 4 7 9 13 19 29 40 43 41 41 43 44 43 42 44 45 43 39 35 30 29 30 30 27 22 20 20 20 21 23 22 22 23 24 25
4 6 5 2 0 0 2 3 5 9 13 14 18 25 32 36 37 39 44 47 47 44 44 44 41 40 40 36 31 27 25 24 22 20 19 19 19 20 21 22 23 24 24 24
2 3 3 1 0 2 4 6 8 12 16 20 24 28 31 30 32 38 47 51 48 46 45 44 41 40 41 39 32 27 22 19 18 17 17 16 16 16 18 21 24 24 22 20
1 1 1 0 1 4 7 7 10 16 24 28 29 31 34 36 36 42 48 49 47 44 42 40 38 36 35 34 29 23 18 15 14 13 13 13 13 12 14 18 21 21 19 16
1 2 3 3 4 8 12 13 17 28 35 34 32 35 40 40 39 41 43 43 41 38 35 32 30 28 27 25 22 18 14 12 11 11 11 11 11 9 11 15 17 16 15 14
3 5 8 8 9 13 18 20 25 33 37 33 32 35 37 36 34 34 34 34 32 29 26 23 22 21 20 19 17 15 12 10 11 12 12 12 11 10 11 14 14 12 11 12
5 5 8 10 10 13 16 20 21 26 29 30 32 32 31 29 28 28 27 25 23 20 16 15 15 14 14 14 13 12 10 10 12 14 15 14 12 10 12 14 11 9 8 9
3 3 4 5 6 7 10 13 15 18 24 28 30 29 26 25 24 23 20 17 15 12 9 9 10 10 9 8 8 8 8 9 11 14 15 15 11 8 9 9 6 5 5 4
2 2 2 1 2 3 4 7 11 16 21 26 28 26 23 22 21 18 15 12 10 8 7 6 7 7 6 5 5 6 7 8 9 12 15 13 10 7 6 5 3 2 2 2

GEFSCGP_con_prob3kmehi_180.txt.gz
EHI
0 0 0 0 0 0 0 0 0 0 0 1 5 13 24 34 43 48 53 59 60 57 59 66 76 83 83 80 80 80 74 63 54 50 43 35 29 25 22 19 18 17 16 16
0 0 0 0 0 0 0 0 0 0 0 0 3 10 19 27 37 46 54 61 64 63 66 71 77 83 84 80 79 79 73 63 54 48 41 33 28 25 23 23 22 20 19 18
0 0 0 0 0 0 0 0 0 0 0 0 2 5 10 17 27 40 52 60 64 67 71 74 77 82 83 80 76 74 71 64 54 48 41 34 30 29 27 26 27 27 24 23
0 0 0 0 0 0 0 0 0 0 0 0 1 2 4 9 19 32 46 56 60 66 72 75 77 79 80 77 72 70 69 64 56 49 43 38 33 30 26 24 26 29 28 26
0 0 0 0 0 0 0 0 0 0 0 0 0 1 1 5 13 24 38 52 60 66 72 76 77 77 76 73 70 68 68 64 57 50 44 40 33 25 19 18 21 25 27 25
0 0 0 0 0 0 0 0 0 0 0 0 0 0 1 3 9 19 34 50 61 68 73 75 75 74 72 71 69 67 65 61 56 51 45 41 33 21 16 17 19 21 23 23
0 0 0 0 0 0 0 0 0 0 0 0 0 0 0 2 8 20 34 47 58 66 70 71 72 72 69 67 65 63 61 59 56 52 46 41 32 23 17 18 17 17 19 21
0 0 0 0 0 0 0 0 0 0 0 0 0 0 1 3 11 22 32 42 52 59 63 66 68 68 65 62 60 60 60 58 54 50 44 37 31 24 18 16 14 13 15 16
0 0 0 0 0 0 0 0 0 0 0 0 0 1 2 7 16 24 29 35 44 51 58 62 63 62 59 57 56 57 59 56 51 47 43 37 31 25 19 14 11 10 11 11
0 0 0 0 0 0 0 0 0 0 0 0 0 2 3 8 17 23 26 32 40 49 55 58 57 54 53 52 52 52 54 52 47 44 42 35 27 21 17 14 12 10 9 8
0 0 0 0 0 0 0 0 0 0 0 0 0 1 3 8 14 20 26 33 42 49 52 52 50 49 49 49 49 48 48 47 43 40 38 31 23 19 17 15 13 11 9 8
0 0 0 0 0 0 0 0 0 0 0 0 0 1 4 8 12 18 25 31 38 44 47 48 48 49 48 48 48 47 44 40 38 36 34 28 23 19 17 14 12 10 8 8
0 0 0 0 0 0 0 0 0 0 0 0 1 2 5 9 13 18 23 27 32 39 44 46 48 48 47 45 43 41 37 33 33 34 32 27 23 19 15 11 8 7 7 6
0 0 0 0 0 0 0 0 0 0 0 0 1 2 4 8 13 19 24 28 33 39 44 45 43 42 41 39 36 33 30 27 28 31 30 25 20 15 12 9 6 5 5 4
0 0 0 0 0 0 0 0 0 0 0 0 1 2 5 9 15 21 28 33 37 40 41 40 37 36 36 33 30 28 26 25 26 27 26 21 14 10 9 6 5 5 4 3
0 0 0 0 0 0 0 0 0 0 0 1 3 5 9 13 18 25 32 36 38 39 38 35 33 32 31 29 26 23 22 22 23 22 20 15 9 6 5 4 4 4 4 3
0 0 0 0 0 0 0 0 0 1 1 3 6 11 16 20 23 26 30 33 34 33 33 31 29 28 26 23 21 18 17 18 18 16 14 11 8 5 3 1 2 3 3 3
0 0 0 0 0 0 0 0 1 2 4 7 12 17 23 27 28 26 25 26 27 28 28 27 26 24 21 19 17 16 15 15 14 11 9 8 7 6 3 2 2 2 2 3
0 0 0 0 0 0 0 2 4 7 10 13 17 23 27 30 31 27 22 23 25 25 26 25 24 22 19 17 16 15 15 14 12 10 8 7 7 6 5 4 3 3 3 3
0 0 0 0 0 0 2 6 9 11 15 17 21 25 27 27 27 25 25 26 27 28 26 24 22 21 19 15 14 14 14 13 12 10 8 7 6 7 5 4 4 4 4 4
0 0 0 0 0 1 4 9 10 10 14 19 21 23 23 23 23 23 25 27 28 28 26 24 22 19 16 13 12 12 11 11 10 9 7 7 6 6 4 4 5 5 4 4
0 0 0 0 0 1 3 7 6 6 10 16 18 19 19 19 20 20 21 22 22 23 23 22 19 15 11 9 8 8 8 8 8 7 6 6 5 4 3 4 5 4 4 4
0 0 0 0 1 1 2 3 4 5 8 10 12 13 14 16 17 17 16 16 16 16 16 14 13 9 5 4 4 4 4 5 6 6 5 4 4 3 3 3 4 3 3 3
0 0 0 0 1 1 1 1 2 5 6 6 7 8 11 14 15 15 13 12 12 11 9 7 6 4 1 1 1 1 1 2 4 4 4 3 3 3 3 3 2 3 3 3
0 0 0 0 1 1 0 0 1 3 5 5 5 7 11 13 14 13 10 8 7 6 4 3 2 1 0 0 0 0 0 0 1 2 3 3 3 3 3 1 1 1 2 2
0 0 0 0 0 0 0 0 0 1 3 4 5 8 11 13 13 10 8 6 4 2 1 1 0 0 0 0 0 0 0 0 0 1 3 3 3 3 2 1 0 0 1 1

GEFSCGP_con_prob3kmehi_186.txt.gz
EHI
0 0 0 0 0 0 0 0 0 0 0 0 1 3 6 11 17 19 21 22 21 20 21 25 28 25 21 19 17 13 9 5 4 3 2 1 1 0 0 0 0 0 0 0
0 0 0 0 0 0 0 0 0 0 0 0 1 2 4 8 13 15 17 18 19 20 22 28 34 33 30 27 25 21 14 10 8 6 3 2 1 1 1 0 1 1 0 0
0 0 0 0 0 0 0 0 0 0 0 0 0 1 3 4 7 9 10 12 15 19 23 30 40 44 41 39 38 34 26 20 17 14 10 6 5 5 4 3 3 2 1 1
0 0 0 0 0 0 0 0 0 0 0 0 0 0 1 2 3 6 6 8 13 16 21 31 43 49 49 48 47 44 38 31 26 24 22 17 14 11 8 6 6 5 3 2
0 0 0 0 0 0 0 0 0 0 0 0 0 0 0 1 3 6 7 9 12 17 23 33 45 51 52 50 49 48 43 36 32 30 30 28 21 14 9 7 7 7 6 5
0 0 0 0 0 0 0 0 0 0 0 0 0 0 0 0 2 5 9 12 15 21 28 36 44 50 51 50 49 50 44 38 33 31 30 31 23 12 7 7 8 9 8 6
0 0 0 0 0 0 0 0 0 0 0 0 0 0 0 0 0 3 10 16 20 26 33 38 42 47 49 50 53 52 46 38 33 28 27 27 21 11 6 7 9 9 7 5
0 0 0 0 0 0 0 0 0 0 0 0 0 0 0 0 1 3 8 16 24 30 36 41 44 45 46 48 51 51 46 40 34 28 24 22 17 10 6 6 7 7 5 4
0 0 0 0 0 0 0 0 0 0 0 0 0 0 0 0 2 4 8 16 25 31 37 42 45 45 44 44 46 46 45 42 36 29 25 21 15 10 6 5 4 4 4 3
0 0 0 0 0 0 0 0 0 0 0 0 0 0 0 0 2 5 9 16 23 27 32 39 43 44 42 41 41 41 40 38 34 30 26 23 17 11 7 5 3 3 3 3
0 0 0 0 0 0 0 0 0 0 0 0 0 0 0 0 1 4 9 15 18 19 24 33 38 39 39 39 38 37 35 32 30 28 26 24 20 14 9 7 5 4 3 3
0 0 0 0 0 0 0 0 0 0 0 0 0 0 0 1 3 5 9 13 14 13 16 26 32 34 35 35 35 35 33 30 27 26 25 22 19 16 13 9 6 4 3 3
0 0 0 0 0 0 0 0 0 0 0 0 0 0 0 2 5 7 9 12 12 11 14 21 27 29 31 32 32 31 29 26 25 25 23 19 18 16 13 9 5 4 2 1
0 0 0 0 0 0 0 0 0 0 0 0 0 0 0 2 6 8 9 12 13 13 16 21 25 28 28 28 26 24 22 22 23 23 21 17 15 12 8 5 3 2 1 0
0 0 0 0 0 0 0 0 0 0 0 0 0 0 0 2 6 8 10 13 15 16 19 21 23 25 24 21 19 18 17 18 20 20 17 13 11 8 4 2 1 1 0 0
0 0 0 0 0 0 0 0 0 0 0 0 0 0 0 2 5 8 11 13 14 15 17 18 20 21 18 16 15 15 15 17 18 17 14 12 9 6 3 1 0 0 0 0
0 0 0 0 0 0 0 0 0 0 0 0 0 0 0 3 5 8 11 13 11 10 11 14 17 17 16 14 14 15 15 16 16 16 15 13 10 7 3 1 0 0 0 0
0 0 0 0 0 0 0 0 0 0 1 1 1 1 3 7 9 9 9 10 8 6 7 11 14 14 15 14 14 14 14 14 15 15 15 13 10 6 3 1 0 0 0 0
0 0 0 0 0 0 0 0 0 0 1 1 1 2 6 10 10 8 6 5 5 5 7 10 12 12 13 13 13 12 11 11 11 11 12 12 9 6 3 2 1 0 0 0
0 0 0 0 0 0 0 0 0 0 0 0 0 2 6 8 6 4 5 5 5 5 7 10 11 10 10 10 10 8 7 7 7 7 8 9 7 4 3 2 1 0 0 0
0 0 0 0 0 0 0 0 0 0 0 0 1 3 5 5 4 5 6 7 7 7 7 9 9 8 7 7 6 5 4 4 3 3 3 4 3 2 1 1 0 0 0 0
0 0 0 0 0 0 0 1 1 0 0 1 2 4 5 6 6 7 9 10 9 8 8 8 7 7 5 5 5 4 3 2 1 1 1 2 1 1 0 0 0 0 0 0
0 0 0 0 0 0 0 1 1 0 0 1 2 3 5 6 7 8 9 11 10 9 8 8 7 7 5 4 4 3 2 1 0 0 1 2 1 1 0 0 0 0 0 0
0 0 0 0 0 0 0 1 1 0 1 1 1 2 4 5 6 7 9 10 10 9 8 6 6 6 4 2 2 1 1 0 0 0 1 1 0 0 0 0 0 0 0 0
0 0 0 0 0 0 0 0 0 0 1 1 2 3 3 3 4 5 8 9 8 7 5 4 3 3 2 1 0 0 0 0 0 0 0 0 0 0 0 0 0 0 0 0
0 0 0 0 0 0 0 0 0 0 1 1 2 4 3 2 2 4 6 7 6 4 3 2 1 1 0 0 0 0 0 0 0 0 0 0 0 0 0 0 0 0 0 0

GEFSCGP_con_prob3kmehi_192.txt.gz
EHI
0 0 0 0 0 0 0 0 0 0 0 0 1 3 4 5 8 13 19 25 29 31 34 36 33 29 28 27 26 22 20 21 22 18 14 13 11 10 9 10 14 18 17 15
0 0 0 0 0 0 0 0 0 0 0 0 0 1 3 5 8 12 17 21 25 30 37 40 38 35 33 31 29 24 22 22 21 18 14 13 13 13 11 11 15 19 19 18
0 0 0 0 0 0 0 0 0 0 0 0 0 0 1 4 8 11 14 17 21 28 37 42 43 41 40 38 34 30 30 30 28 25 21 18 19 18 15 14 17 20 21 21
0 0 0 0 0 0 0 0 0 0 0 0 0 0 1 3 7 10 13 16 20 24 31 40 45 45 46 44 41 39 40 41 40 37 32 29 28 23 19 18 19 21 22 22
0 0 0 0 0 0 0 0 0 0 0 0 0 0 1 2 5 8 12 16 19 21 26 37 45 47 48 48 46 47 49 52 51 45 41 38 32 25 22 20 21 21 22 21
0 0 0 0 0 0 0 0 0 0 0 0 0 0 0 2 5 8 11 14 18 20 25 35 43 48 51 51 50 52 59 63 60 52 47 42 35 28 23 23 23 20 19 20
0 0 0 0 0 0 0 0 0 0 0 0 0 0 1 2 5 9 11 12 16 20 25 32 42 50 53 54 55 60 68 72 68 60 51 46 40 31 26 24 22 19 18 17
0 0 0 0 0 0 0 0 0 0 0 0 0 1 2 4 6 9 11 13 17 21 24 29 39 49 53 53 56 61 68 71 69 63 57 51 44 34 26 22 20 19 17 15
0 0 0 0 0 0 0 0 0 0 0 0 0 1 3 5 8 10 13 16 20 23 24 27 33 41 46 47 50 55 60 63 62 60 56 51 44 34 25 21 20 19 18 17
0 0 0 0 0 0 0 0 0 0 0 0 0 1 4 7 10 12 14 18 23 25 26 27 30 35 38 41 45 49 52 55 54 52 48 42 39 35 27 23 22 21 22 22
0 0 0 0 0 0 0 0 0 0 0 0 0 1 4 8 12 13 16 21 25 28 29 28 31 35 37 39 45 48 49 48 47 44 41 38 37 36 33 28 25 24 24 24
0 0 0 0 0 0 0 0 0 0 0 0 0 1 4 9 12 15 19 23 28 33 32 30 32 36 39 43 48 50 48 45 41 38 37 38 39 40 38 32 28 26 24 23
0 0 0 0 0 0 0 0 0 0 0 0 0 2 6 9 13 18 23 27 32 36 35 33 34 37 41 46 50 50 47 44 40 37 37 37 39 42 40 35 29 26 23 22
0 0 0 0 0 0 0 0 0 0 0 0 0 2 6 10 14 20 27 33 35 36 35 33 36 39 42 45 48 47 46 45 43 40 37 36 37 39 38 35 29 25 22 21
0 0 0 0 0 0 0 0 0 0 0 0 0 2 5 11 16 23 30 35 37 34 33 34 38 40 42 44 45 46 46 45 43 38 34 32 32 32 32 30 26 21 18 17
0 0 0 0 0 0 0 0 0 0 0 0 0 2 7 12 19 25 31 36 37 34 33 36 40 41 42 43 44 46 46 43 38 32 27 24 24 25 25 23 19 15 13 13
0 0 0 0 0 0 0 0 0 0 0 0 1 4 9 15 21 25 30 35 38 36 34 35 36 38 40 40 41 42 41 37 32 26 21 19 20 20 19 18 15 12 11 12
0 0 0 0 0 0 1 1 1 1 1 1 2 5 9 15 19 22 25 31 37 38 33 30 30 31 33 34 34 34 33 29 26 22 19 19 19 19 18 19 19 16 13 13
0 0 0 0 0 0 1 2 3 3 2 2 4 6 9 12 14 15 18 26 34 35 29 27 26 27 28 29 28 28 25 22 20 19 18 19 20 19 20 21 21 19 17 17
0 0 0 0 0 1 2 4 5 4 4 5 8 11 11 10 13 16 18 25 31 30 27 26 27 27 27 28 28 26 23 21 19 18 18 18 19 19 19 19 19 19 19 19
0 0 0 0 0 1 4 6 6 7 7 9 11 15 15 14 18 22 24 27 29 29 26 26 27 26 25 25 27 27 25 24 22 19 18 17 17 16 16 17 18 18 17 16
2 1 1 1 1 3 7 9 10 10 11 11 13 17 18 19 23 26 27 26 27 28 26 25 25 22 20 21 24 25 24 23 21 19 16 15 14 12 13 15 15 15 14 13
5 4 3 4 5 7 10 13 14 13 12 12 14 16 18 18 20 22 22 21 23 24 22 21 20 19 19 20 21 20 18 17 15 14 13 12 11 11 11 11 9 8 9 9
6 5 6 8 10 10 11 13 13 12 11 12 13 13 14 13 13 14 15 16 18 18 18 18 18 18 19 19 18 16 14 11 9 9 9 9 9 9 8 7 4 3 3 5
4 4 6 9 10 11 11 10 10 10 9 9 10 10 12 12 10 10 12 13 14 15 16 16 16 16 16 16 14 13 11 9 7 6 6 5 6 5 4 3 1 1 1 2
3 4 5 7 9 11 11 8 8 10 9 7 7 9 12 12 10 10 12 12 14 15 15 15 14 14 14 12 10 10 9 8 7 6 3 2 2 2 1 1 0 0 1 0

GEFSCGP_con_prob3kmehi_198.txt.gz
EHI
0 0 0 0 0 0 0 0 0 0 0 0 1 5 10 11 13 19 26 37 48 57 67 73 72 70 73 78 76 69 63 58 51 39 30 27 25 21 18 22 36 41 32 26
0 0 0 0 0 0 0 0 0 0 0 0 1 4 8 10 12 17 26 38 49 61 72 80 80 77 80 83 80 71 66 63 56 44 34 30 29 24 20 26 39 41 34 29
0 0 0 0 0 0 0 0 0 0 0 0 0 2 6 9 10 14 24 37 49 62 76 85 88 87 87 88 83 75 72 71 64 53 42 38 37 33 31 37 44 44 38 34
0 0 0 0 0 0 0 0 0 0 0 0 0 1 5 10 11 14 23 35 45 58 74 86 92 91 89 88 86 82 80 78 72 61 51 48 47 43 42 47 50 48 42 36
0 0 0 0 0 0 0 0 0 0 0 0 0 0 3 8 10 12 20 30 40 53 69 84 92 91 88 87 88 87 86 83 78 69 61 57 53 48 46 48 50 49 43 36
0 0 0 0 0 0 0 0 0 0 0 0 0 0 1 4 6 8 14 23 35 48 63 79 89 90 88 86 86 87 88 86 84 78 70 64 59 53 49 46 45 44 41 37
0 0 0 0 0 0 0 0 0 0 0 0 0 0 1 3 5 8 12 19 30 44 57 71 83 88 87 85 84 87 89 88 86 82 77 72 67 59 52 47 43 41 39 37
0 0 0 0 0 0 0 0 0 0 0 0 0 1 2 4 7 10 12 17 27 39 50 62 75 82 83 84 86 88 89 87 84 82 79 77 72 62 55 49 45 42 37 31
0 0 0 0 0 0 0 0 0 0 0 0 0 1 4 6 8 9 11 17 25 35 44 54 65 74 80 82 84 85 85 85 82 79 77 76 71 62 55 51 46 40 35 30
0 0 0 0 0 0 0 0 0 0 0 0 0 2 6 9 8 7 11 19 27 34 39 46 58 70 76 78 79 80 80 80 79 76 73 71 67 58 53 50 45 40 37 35
0 0 0 0 0 0 0 0 0 0 0 0 1 2 5 9 9 10 15 24 32 34 36 42 54 65 70 73 75 76 77 77 76 73 69 65 61 55 50 47 44 43 41 40
0 0 0 0 0 0 0 0 0 0 0 0 1 1 3 6 10 15 24 33 38 39 40 45 53 61 66 69 72 73 74 75 74 70 65 60 57 53 48 44 44 44 43 43
0 0 0 0 0 0 0 0 0 0 0 0 0 1 3 7 13 23 33 40 43 47 51 56 62 66 65 66 67 68 68 69 68 65 62 57 53 50 48 45 44 43 42 44
0 0 0 0 0 0 0 0 0 0 0 0 0 2 6 11 18 29 38 43 48 53 60 67 73 74 68 63 62 62 61 61 61 61 59 56 52 50 48 46 43 40 39 39
0 0 0 0 0 0 0 0 0 0 0 0 1 4 9 15 24 34 41 47 52 59 65 72 77 75 67 61 58 58 58 56 55 56 55 53 49 48 46 42 39 36 34 34
0 0 0 0 0 0 0 0 0 0 0 1 4 9 15 23 31 40 47 53 58 64 69 74 74 72 66 59 57 56 54 52 51 52 51 47 43 41 37 34 32 31 30 29
0 0 0 0 0 0 0 1 1 1 1 2 7 14 21 29 38 46 52 58 63 66 70 72 70 68 64 58 54 51 48 47 47 48 47 42 36 31 28 27 26 26 25 24
0 0 0 0 0 0 0 1 2 2 4 6 10 16 23 32 42 47 53 60 64 65 67 68 65 64 62 56 50 45 43 43 43 43 41 36 30 26 25 25 24 24 22 20
0 0 0 0 0 0 1 1 1 3 6 10 15 20 25 31 38 45 52 58 60 60 61 61 60 60 59 54 48 43 41 41 38 35 33 31 28 27 26 25 24 23 19 17
0 0 0 0 0 2 4 3 1 3 9 14 20 25 28 30 37 48 57 57 55 56 56 53 53 56 57 53 48 44 39 35 32 29 28 27 27 26 25 25 25 22 17 15
0 0 0 0 1 5 10 9 8 15 25 28 27 30 34 37 45 55 59 56 52 52 50 48 48 51 52 49 45 40 33 28 27 27 27 26 24 23 23 24 24 21 17 15
1 1 1 0 2 10 20 22 27 39 47 44 37 35 41 47 51 54 53 50 47 46 45 44 44 46 46 44 39 34 28 24 25 26 26 25 22 19 18 20 20 17 14 13
2 2 3 4 9 18 27 34 42 49 52 47 41 40 44 46 47 47 47 46 44 42 41 40 41 42 42 39 35 31 27 23 22 22 22 20 18 15 14 13 12 10 8 8
1 2 6 12 17 21 27 34 40 42 40 38 37 38 39 39 39 40 41 42 40 38 38 38 38 37 36 34 31 27 24 21 19 16 14 13 12 11 9 7 6 5 5 5
5 7 11 17 20 18 20 26 31 32 30 30 29 29 30 31 31 32 33 34 33 33 34 34 32 30 30 30 28 25 21 18 15 11 9 8 8 7 5 4 3 3 3 3
11 13 16 18 18 16 15 19 24 27 27 26 25 24 24 25 26 27 28 29 28 30 31 29 26 26 26 27 27 25 21 17 13 10 9 9 7 5 4 3 2 1 1 1

GEFSCGP_con_prob3kmehi_204.txt.gz
EHI
0 0 0 0 0 0 0 0 0 0 0 1 5 12 17 21 26 33 38 38 37 38 45 59 68 69 64 60 57 50 40 33 29 23 18 12 7 6 7 6 4 2 4 5
0 0 0 0 0 0 0 0 0 0 1 2 5 10 15 18 25 33 38 38 37 40 51 64 72 74 71 66 63 56 46 38 31 24 17 10 6 5 7 6 5 4 5 5
0 0 0 0 0 0 0 0 0 0 1 3 4 6 9 14 21 30 36 37 36 44 57 69 78 80 77 73 70 64 54 44 36 29 23 16 11 8 6 5 4 5 6 6
0 0 0 0 0 0 0 0 0 0 1 1 2 3 5 11 19 27 34 35 36 45 59 71 78 81 80 75 71 67 59 49 41 37 34 29 22 14 7 4 3 4 6 8
0 0 0 0 0 0 0 0 0 0 0 0 1 2 3 7 17 26 34 36 36 44 59 70 75 78 79 77 73 67 61 53 47 44 41 38 30 20 11 7 5 6 8 10
0 0 0 0 0 0 0 0 0 0 0 0 0 1 1 4 12 24 34 39 40 45 56 66 71 76 80 80 77 72 67 60 54 50 45 40 33 24 16 11 9 10 11 13
0 0 0 0 0 0 0 0 0 0 0 0 0 0 1 3 8 20 33 41 45 48 54 61 70 77 81 81 79 77 74 67 61 56 49 39 32 25 18 14 12 12 13 13
0 0 0 0 0 0 0 0 0 0 0 0 0 1 3 6 11 20 32 41 46 50 56 61 68 75 78 79 79 79 78 73 65 59 50 38 29 23 18 14 12 12 11 11
0 0 0 0 0 0 0 0 0 0 0 0 1 2 5 10 15 22 31 38 43 49 56 61 64 68 72 75 76 76 75 73 67 59 49 38 30 23 17 14 12 11 9 8
0 0 0 0 0 0 0 0 0 0 0 0 1 2 5 11 18 24 29 35 40 46 51 55 59 62 66 68 70 71 71 69 64 57 48 39 32 25 20 16 15 13 9 7
0 0 0 0 0 0 0 0 0 0 0 0 0 1 5 11 19 26 31 35 40 44 47 49 52 56 60 63 63 65 66 65 62 55 47 40 33 28 25 20 16 16 14 11
0 0 0 0 0 0 0 0 0 0 0 0 0 1 6 13 22 31 38 41 45 47 47 49 50 52 55 57 58 59 62 62 60 53 45 39 33 28 25 21 17 18 18 16
0 0 0 0 0 0 0 0 0 0 0 0 0 2 9 18 27 38 46 48 49 50 50 51 51 50 51 52 54 55 56 57 54 48 42 37 31 26 22 19 19 19 17 16
0 0 0 0 0 0 0 0 0 0 0 0 0 4 13 23 31 41 49 51 52 54 55 54 53 51 49 49 49 49 49 48 46 42 38 33 28 24 20 19 19 18 16 15
0 0 0 0 0 1 1 0 0 0 0 0 2 6 15 24 32 43 53 56 56 57 58 56 53 51 50 47 44 42 42 41 39 37 32 28 24 21 20 19 18 18 16 14
0 0 0 0 1 2 2 1 1 1 1 2 4 9 17 26 34 45 55 58 56 56 57 55 49 46 45 44 42 41 40 38 36 32 28 24 23 22 21 18 17 16 15 14
0 0 0 0 1 2 2 2 3 4 4 5 8 14 22 30 37 44 51 53 54 54 53 49 42 37 38 41 43 42 39 36 32 29 26 25 25 25 22 18 15 14 14 14
0 0 0 0 0 1 1 2 5 9 11 13 18 26 33 39 44 46 48 49 50 51 49 44 37 32 34 38 41 39 35 31 30 29 28 26 25 25 21 17 14 13 12 12
0 0 0 0 0 0 2 5 9 14 18 21 26 35 43 49 51 51 48 47 49 50 47 43 38 33 32 35 36 34 30 27 27 28 27 25 23 22 18 15 13 11 10 10
0 0 0 0 0 1 6 11 14 15 19 23 27 36 44 49 50 48 45 46 49 49 45 41 38 34 30 30 31 30 27 24 23 23 22 20 19 17 14 12 10 8 8 8
0 0 0 0 0 3 9 15 15 14 16 22 27 34 41 44 44 44 42 44 46 44 40 37 35 31 28 27 26 25 22 18 16 16 16 14 14 13 11 9 7 7 6 6
0 0 0 0 1 4 8 13 16 16 19 24 29 36 43 45 45 44 43 41 40 38 35 33 31 27 25 24 21 18 15 11 9 10 11 10 9 8 7 6 6 6 5 5
0 0 0 1 3 5 8 13 17 20 24 27 31 37 43 43 41 40 38 36 35 34 33 31 27 22 20 18 14 11 9 7 6 5 6 6 5 5 4 5 5 4 4 4
0 1 1 2 4 8 11 15 20 22 25 27 29 34 37 34 31 31 31 30 29 29 28 26 21 15 13 12 10 8 6 4 3 2 2 2 3 3 3 3 3 3 3 3
1 1 2 2 4 8 12 15 18 19 22 24 26 29 29 26 24 25 24 22 20 20 20 19 15 11 8 8 6 4 3 1 1 1 0 1 2 2 2 1 1 1 2 2
2 1 1 1 3 6 9 12 14 15 18 23 26 27 25 23 22 22 20 16 14 15 16 15 13 9 7 5 4 2 1 0 0 0 0 0 1 1 1 0 0 0 1 1

GEFSCGP_con_prob3kmehi_210.txt.gz
EHI
0 0 0 0 0 0 0 0 0 0 1 2 3 2 1 3 4 2 2 4 6 5 5 7 12 14 14 15 15 13 11 10 10 9 8 6 4 2 1 0 0 0 0 0
0 0 0 0 0 0 0 0 0 0 0 1 2 1 1 3 5 4 3 5 6 5 7 12 19 21 18 16 16 16 14 12 12 11 8 5 3 1 1 0 0 0 0 0
0 0 0 0 0 0 0 0 0 0 0 1 1 1 0 2 4 4 4 6 7 7 10 17 25 29 25 19 18 20 19 17 15 13 11 8 5 3 2 1 0 0 0 0
0 0 0 0 0 0 0 0 0 0 0 0 0 0 0 1 3 4 4 7 11 12 14 19 27 32 30 25 22 22 21 20 17 16 15 13 9 5 3 1 0 0 0 0
0 0 0 0 0 0 0 0 0 0 0 0 0 0 0 1 2 3 4 8 14 18 18 20 26 31 32 30 26 24 21 20 19 18 18 16 11 6 3 2 1 0 0 0
0 0 0 0 0 0 0 0 0 0 0 0 0 0 0 0 1 2 3 9 16 20 22 23 25 29 32 32 32 29 26 23 21 20 19 15 11 7 4 3 2 1 0 0
0 0 0 0 0 0 0 0 0 0 0 0 0 0 0 0 0 1 3 8 13 19 22 24 26 29 32 37 39 37 32 28 25 24 21 16 11 8 6 5 3 1 0 1
0 0 0 0 0 0 0 0 0 0 0 0 0 0 0 0 0 2 4 7 12 16 19 22 27 32 35 40 43 41 35 31 28 28 26 19 13 10 8 6 3 1 0 1
0 0 0 0 0 0 0 0 0 0 0 0 0 0 0 0 0 2 5 9 12 14 15 19 26 31 35 39 43 41 36 32 30 31 29 22 14 10 9 6 3 1 0 1
0 0 0 0 0 0 0 0 0 0 0 0 0 0 0 0 1 3 7 9 11 14 15 18 22 26 29 34 38 39 36 33 31 30 27 21 14 9 8 6 4 2 1 1
0 0 0 0 0 0 0 0 0 0 0 0 0 0 0 0 1 5 9 10 11 14 18 21 22 22 23 27 32 36 36 34 30 27 23 18 13 8 7 6 5 4 3 3
0 0 0 0 0 0 0 0 0 0 0 0 0 0 1 1 4 8 12 12 12 15 19 23 24 24 22 24 28 31 33 30 28 25 21 16 12 10 9 7 6 5 5 4
0 0 0 0 0 0 0 0 0 0 0 0 0 1 1 4 7 12 16 16 14 16 20 22 25 26 25 25 26 26 26 25 24 24 21 16 13 12 12 9 7 6 6 4
0 0 0 0 0 0 0 0 0 0 0 0 0 1 2 5 10 17 20 19 18 19 21 22 24 26 26 25 24 22 20 20 21 23 22 19 17 16 15 12 9 8 6 5
0 0 0 0 0 0 0 0 0 0 0 0 1 1 2 6 13 21 24 23 21 20 21 23 24 26 26 23 21 19 17 18 22 24 23 22 21 21 18 14 12 10 8 6
0 0 0 0 0 0 0 0 0 0 0 0 1 1 5 11 18 23 26 27 25 23 22 23 25 26 25 21 17 14 15 17 22 24 22 21 22 22 19 15 13 11 8 7
0 0 0 0 0 0 0 0 0 0 0 0 0 2 8 16 21 24 27 29 29 28 28 26 24 23 22 19 14 14 15 18 20 21 21 20 21 22 20 15 13 12 10 8
0 0 0 0 0 0 0 0 0 0 0 0 1 6 15 23 26 26 26 28 31 33 31 28 22 20 20 18 16 17 19 20 21 21 21 20 21 22 20 16 13 12 11 11
0 0 0 0 0 0 0 0 0 1 1 1 4 12 22 29 30 28 27 30 33 33 31 27 22 20 21 19 17 19 19 18 19 20 20 19 18 18 16 13 10 10 11 11
0 0 0 0 0 0 0 1 1 1 1 2 8 17 26 28 26 27 31 33 32 29 28 26 22 23 24 21 18 17 16 15 15 17 17 16 14 12 9 6 4 5 7 9
0 0 0 0 0 0 1 2 2 1 2 5 11 19 26 25 21 25 33 34 30 27 26 25 23 21 20 19 18 15 13 13 14 14 14 12 10 7 4 2 1 3 5 7
0 0 0 0 0 0 1 3 4 3 5 10 14 22 27 25 23 27 32 31 29 28 26 24 22 17 14 14 14 12 11 12 13 13 11 8 6 4 1 1 1 3 5 6
0 0 0 1 2 3 3 4 4 5 9 13 18 23 26 26 27 29 31 30 28 28 26 22 18 15 11 8 7 6 6 8 10 10 8 5 3 1 0 0 1 2 3 4
0 0 0 2 5 7 7 5 5 7 10 15 19 20 21 22 24 26 28 28 28 25 20 17 14 13 9 5 3 3 3 5 7 7 5 2 1 0 0 0 0 1 1 1
0 0 0 2 4 7 8 6 6 8 11 15 17 17 17 17 19 21 23 25 24 20 15 12 10 9 6 4 3 2 2 2 3 2 1 0 0 0 0 0 0 0 0 0
0 0 0 1 2 5 7 7 7 9 12 15 16 17 16 15 16 19 20 20 19 16 12 9 7 6 4 4 3 2 2 1 0 0 0 0 0 0 0 0 0 0 0 0